Location: ????????
(55.1591°N, 39.1782°E)
Time: 20:41:03
(UTC+00:00)

Cosmos 1666 Rocket - Pass Details

Date: 14 April 2024
Orbit: 600 x 629 km, 82.5° (Epoch: 17 May)

Event Time Altitude Azimuth Distance (km) Brightness Sun altitude
Rises 01:28:25 0° 344° (NNW) 2,937 7.2 -7.8°
Reaches altitude 10° 01:30:45 10° 337° (NNW) 2,024 6.3 -7.5°
Maximum altitude 01:34:59 43° 267° (W) 893 4.0 -7.0°
Drops below altitude 10° 01:39:11 10° 196° (SSW) 1,999 5.8 -6.4°
Sets 01:41:28 0° 190° (S) 2,897 6.6 -6.1°
